Hibbing, MN

9:50 PM CDT on August 18, 2017 (GMT -0500)
Chisholm-hibbing

Weather History for KHIB - December, 2012

Change the Weather History Date:

Friday, December 21, 2012

  Actual Average Record
Temperature  
Mean Temperature 5 °F -  
Max Temperature 12 °F 20 °F 39 °F (1967)
Min Temperature -4 °F -1 °F -26 °F (1970)
Degree Days  
Heating Degree Days 60    
Moisture  
Dew Point -2 °F    
Average Humidity 79    
Maximum Humidity 84    
Minimum Humidity 71    
Precipitation  
Precipitation 0.00 in - - ()
Sea Level Pressure  
Sea Level Pressure 30.23 in    
Wind  
Wind Speed 9 mph (NW)    
Max Wind Speed 15 mph    
Max Gust Speed -    
Visibility 10 miles    
Events      
Averages and records for this station are not official NWS values.
T = Trace of Precipitation, MM = Missing Value Source: NWS Daily Summary

Daily Weather History Graph

Daily Weather History Graph

Search for Another Location

Airport or City:

Trip Planner

Search our weather history database for the weather conditions in past years. The results will help you decide how hot, cold, wet, or windy it might be!

Date:

Astronomy

Dec. 21, 2012 Rise Set
Actual Time 7:56 AM CST 4:23 PM CST
Civil Twilight 7:20 AM CST 4:59 PM CST
Nautical Twilight 6:41 AM CST 5:38 PM CST
Astronomical Twilight 6:03 AM CST 6:15 PM CST
Moon 12:26 PM CST (12/21) 1:25 AM CST (12/21)
Length of Visible Light 9h 39m
Length of Day
8h 27m
Waxing Gibbous, 65% of the Moon is Illuminated
Dec 21
Waxing Gibbous
Dec 28
Full
Jan 4
Last Quarter
Jan 11
New
Jan 18
First Quarter

Hourly Weather History & Observations

Time (CST) Temp. Windchill Dew Point Humidity Pressure Visibility Wind Dir Wind Speed Gust Speed Precip Events Conditions
12:28 AM 6.8 °F -10.7 °F 1.4 °F 79% 30.03 in 10.0 mi NNW 15.0 mph - N/A   Partly Cloudy
12:53 AM 5.0 °F -12.3 °F -0.0 °F 80% 30.13 in 10.0 mi NNW 13.8 mph - N/A   Clear
1:10 AM 5.0 °F -12.3 °F -0.4 °F 78% 30.04 in 10.0 mi NNW 13.8 mph - N/A   Partly Cloudy
1:28 AM 5.0 °F -13.0 °F -0.4 °F 78% 30.05 in 10.0 mi NNW 15.0 mph - N/A   Mostly Cloudy
1:53 AM 3.9 °F -14.3 °F -0.0 °F 84% 30.16 in 10.0 mi NNW 15.0 mph - N/A   Scattered Clouds
2:53 AM 3.0 °F -14.1 °F -2.0 °F 80% 30.18 in 10.0 mi NNW 12.7 mph - N/A   Clear
3:53 AM 1.9 °F -14.7 °F -2.9 °F 80% 30.19 in 10.0 mi NNW 11.5 mph - N/A   Clear
5:53 AM -0.0 °F -15.3 °F -5.1 °F 79% 30.26 in 10.0 mi NNW 9.2 mph - N/A   Clear
6:53 AM -0.9 °F -16.4 °F -6.0 °F 79% 30.28 in 10.0 mi North 9.2 mph - N/A   Clear
7:53 AM -2.0 °F -15.4 °F -6.0 °F 83% 30.30 in 10.0 mi NNW 6.9 mph - N/A   Clear
8:53 AM -0.9 °F -15.3 °F -6.0 °F 79% 30.31 in 10.0 mi NNW 8.1 mph - N/A   Clear
9:53 AM 1.0 °F -12.9 °F -5.1 °F 75% 30.33 in 10.0 mi NW 8.1 mph - N/A   Clear
10:53 AM 3.0 °F -6.4 °F -2.0 °F 80% 30.32 in 10.0 mi NW 4.6 mph - N/A   Clear
11:53 AM 6.1 °F -0.9 °F -0.0 °F 76% 30.31 in 10.0 mi NW 3.5 mph - N/A   Clear
12:53 PM 9.0 °F 0.6 °F 1.9 °F 73% 30.29 in 10.0 mi NW 4.6 mph - N/A   Clear
1:53 PM 10.9 °F 1.4 °F 3.9 °F 73% 30.28 in 10.0 mi NW 5.8 mph - N/A   Clear
2:53 PM 12.9 °F 6.9 °F 5.0 °F 71% 30.26 in 10.0 mi WNW 3.5 mph - N/A   Clear
3:53 PM 10.0 °F 1.8 °F 3.9 °F 76% 30.27 in 10.0 mi WNW 4.6 mph - N/A   Clear
4:53 PM 8.1 °F 1.4 °F 3.9 °F 83% 30.28 in 9.0 mi NW 3.5 mph - N/A   Clear
5:53 PM 3.9 °F - -0.0 °F 84% 30.28 in 10.0 mi Calm Calm - N/A   Clear
6:53 PM 1.0 °F - -4.0 °F 79% 30.27 in 10.0 mi Calm Calm - N/A   Clear
7:53 PM -0.9 °F - -6.0 °F 79% 30.27 in 10.0 mi Calm Calm - N/A   Clear
8:53 PM -2.0 °F - -7.1 °F 79% 30.27 in 10.0 mi Calm Calm - N/A   Clear
9:53 PM -2.9 °F - -8.0 °F 79% 30.25 in 10.0 mi Calm Calm - N/A   Clear
10:53 PM -2.9 °F - -8.0 °F 79% 30.24 in 10.0 mi Calm Calm - N/A   Clear
11:53 PM -4.0 °F - -8.0 °F 83% 30.23 in 10.0 mi Calm Calm - N/A   Clear